#timestamp,LO_Frequency,Hit,StdDev 
1566702015.6,286047002.0,N
1566702035.4,286047001.8,N
1566702055.2,286047001.8,N
1566702075.1,286047002.8,N
1566702076.0,286047002.8,N
1566702095.8,286047000.5,N
1566702115.6,286047002.5,N
1566702135.5,286047005.5,N
1566702155.3,286047006.0,N
1566702175.2,286047004.6,N
1566702195.9,286047004.2,N
1566702215.7,286047001.7,N
1566702235.6,286047003.9,N
1566702255.4,286047001.6,N
1566702275.3,286047002.0,N
1566702295.1,286047001.4,N
1566702296.0,286047001.4,N
1566702315.8,286047002.7,N
1566702335.7,286046999.7,N
1566702355.5,286047002.4,N
1566702375.4,286047002.6,N
1566702395.2,286047004.4,N
1566702415.0,286047004.3,N
1566702415.9,286047004.3,N
1566702435.8,286047005.9,Y
1566702455.6,286047002.8,P
1566702475.5,286046999.9,N
1566702495.3,286046998.7,N
1566702515.1,286047001.2,N
1566702535.9,286047000.4,N
1566702555.7,286047000.5,N
1566702575.6,286047000.8,N
1566702595.4,286047000.3,N
1566702615.2,286046998.3,N
1566702635.1,286046999.4,N
1566702636.0,286046999.4,N
1566702655.8,286046999.3,N
1566702675.6,286046999.1,N
1566702695.5,286046997.1,N
1566702715.3,286046997.8,N
1566702735.2,286046997.0,N
1566702755.9,286046996.9,N
1566702775.7,286046997.0,N
1566702795.6,286046996.8,N
1566702815.4,286046998.8,N
1566702835.2,286046998.3,N
1566702855.1,286046998.2,N
1566702856.0,286046998.2,N
1566702875.8,286047000.4,N
1566702895.7,286047000.2,N
1566702915.5,286046999.0,N
1566702935.3,286046998.3,N
1566702955.2,286047001.0,N
1566702975.0,286046998.9,N
1566702975.9,286046998.9,N
1566702995.8,286046998.4,N
1566703015.6,286047000.6,N
1566703035.4,286047000.4,N
1566703055.3,286047002.7,N
1566703075.1,286046999.9,N
1566703095.8,286047000.8,N
1566703115.7,286046999.9,N
1566703135.5,286047000.1,N
1566703155.4,286047002.0,N
1566703175.2,286047003.6,N
1566703195.0,286047004.3,N
1566703195.9,286047004.3,N
1566703215.8,286047001.5,N
1566703235.6,286047004.0,N
1566703255.5,286047001.3,N
1566703275.3,286047002.5,N
1566703295.1,286047001.4,N
1566703315.9,286047004.3,N
1566703335.7,286047003.9,N
1566703355.6,286047004.0,N
1566703375.4,286047004.2,N
1566703395.2,286047001.4,N
1566703415.1,286047003.8,N
1566703416.0,286047003.8,N
1566703435.8,286047004.1,N
1566703455.7,286047003.5,N
1566703475.5,286047004.2,N
1566703495.3,286047003.1,N
1566703515.2,286047004.4,N
1566703535.0,286047004.0,N
1566703535.9,286047004.0,N
1566703555.7,286047004.3,N
1566703575.6,286047004.0,N
1566703595.4,286047004.3,N
1566703615.3,286047004.3,N
1566703635.1,286047004.4,Y
1566703655.8,286046998.4,P
1566703675.7,286046999.4,N
1566703695.5,286046996.9,N
1566703715.4,286046996.7,N
1566703735.2,286046997.4,N
1566703755.0,286046997.7,N
1566703755.9,286046997.7,N
1566703775.8,286046996.9,N
1566703795.6,286046997.3,N
1566703815.5,286046997.4,N
1566703835.3,286046997.5,N
1566703855.1,286046996.8,N
1566703875.9,286046996.5,N
1566703895.7,286046997.4,N
1566703915.5,286046996.6,N
1566703935.4,286046997.1,N
1566703955.2,286046995.3,Y
1566703975.1,286046996.9,P
1566703976.0,286046996.9,P
1566703995.8,286046997.8,P
1566704015.6,286046995.8,Y
1566704035.5,286046996.9,P
1566704055.3,286046997.3,P
1566704075.2,286046995.5,P
1566704095.9,286046993.8,Y
1566704115.7,286046997.0,P
1566704135.6,286046999.1,P
1566704155.4,286046999.3,N
1566704175.3,286046997.0,N
1566704195.1,286046996.5,Y
1566704196.0,286046996.5,P
1566704215.8,286046998.1,N
1566704235.7,286047002.4,P
1566704255.5,286047002.7,N
1566704275.3,286047001.9,N
1566704295.2,286047002.5,N
1566704315.0,286047001.0,N
1566704315.9,286047001.0,N
1566704335.8,286047000.9,N
1566704355.6,286047000.1,N
1566704375.4,286046999.7,N
1566704395.3,286047000.5,N
1566704415.1,286047002.3,N
1566704435.9,286047004.0,N
1566704455.7,286047002.5,N
1566704475.5,286047000.5,N
1566704495.4,286047001.3,N
1566704515.2,286047000.0,N
1566704535.0,286047000.5,N
1566704536.0,286047000.5,N
1566704555.8,286047002.0,N
1566704575.6,286047002.7,N
1566704595.5,286047002.8,N
1566704615.3,286047004.0,N
1566704635.1,286047004.1,N
1566704655.9,286047003.6,N
1566704675.7,286047003.4,N
1566704695.6,286047004.9,N
1566704715.4,286047006.9,Y
1566704735.2,286047007.4,P
1566704755.1,286047004.6,N
1566704756.0,286047004.6,N
1566704775.8,286047006.0,N
1566704795.7,286047003.5,N
1566704815.5,286047001.5,N
1566704835.3,286047005.9,N
1566704855.2,286047003.7,N
1566704875.0,286047004.4,N
1566704875.9,286047004.4,N
1566704895.8,286047003.7,N
1566704915.6,286047002.6,N
1566704935.4,286047002.6,N
1566704955.3,286047004.2,N
1566704975.1,286047001.3,N
1566704995.8,286047002.4,N
1566705015.7,286047002.3,N
1566705035.5,286047003.6,N
1566705055.4,286047003.1,N
1566705075.2,286047001.7,N
1566705095.0,286047003.1,N
1566705095.9,286047003.1,N
1566705115.8,286047003.6,N
1566705135.6,286047003.6,N
1566705155.4,286047004.1,N
1566705175.3,286047003.5,N
1566705195.1,286047003.6,N
1566705215.9,286047005.8,Y
1566705235.7,286047002.5,P
1566705255.5,286047000.6,N
1566705275.4,286047001.0,N
1566705295.2,286047000.0,N
1566705315.1,286047002.8,N
1566705316.0,286047002.8,N
1566705335.8,286047002.0,N
1566705355.6,286047000.3,N
1566705375.5,286047001.6,N
1566705395.3,286047001.5,N
1566705415.2,286047003.9,Y
1566705435.9,286047000.7,P
1566705455.7,286047000.5,N
1566705475.6,286046998.4,P
1566705495.4,286047000.5,N
1566705515.2,286046999.0,N
1566705535.1,286046998.1,N
1566705536.0,286046998.1,N
1566705555.8,286047000.6,N
1566705575.7,286046998.6,N
1566705595.5,286047001.2,N
